Jamestown, NY

12:19 AM EST on December 13, 2019 (GMT -0500)
Chautauqua County-Jamestown

Weather History for KJHW - October, 2019

Change the Weather History Date:

Monday, October 28, 2019

  Actual Average Record
Temperature  
Mean Temperature 52 °F -  
Max Temperature 63 °F 57 °F 81 °F (1989)
Min Temperature 41 °F 31 °F 19 °F (1976)
Degree Days  
Heating Degree Days 14    
Growing Degree Days 2 (Base 50)    
Moisture  
Dew Point 43 °F    
Average Humidity 85    
Maximum Humidity 100    
Minimum Humidity 41    
Precipitation  
Precipitation 0.00 in - - ()
Sea Level Pressure  
Sea Level Pressure 30.12 in    
Wind  
Wind Speed 5 mph (South)    
Max Wind Speed 12 mph    
Max Gust Speed -    
Visibility 5 miles    
Events Fog    
Averages and records for this station are not official NWS values.
T = Trace of Precipitation, MM = Missing Value Source: NWS Daily Summary

Daily Weather History Graph

Daily Weather History Graph

Search for Another Location

Airport or City:

Astronomy

Oct. 28, 2019 Rise Set
Actual Time 7:44 AM EDT 6:16 PM EDT
Civil Twilight 7:15 AM EDT 6:45 PM EDT
Nautical Twilight 6:43 AM EDT 7:17 PM EDT
Astronomical Twilight 6:10 AM EDT 7:50 PM EDT
Moon 8:03 AM EDT (10/28) 7:00 PM EDT (10/28)
Length of Visible Light 11h 29m
Length of Day
10h 31m
New Moon, 0% of the Moon is Illuminated
Oct 28
New Moon
Nov 4
First Quarter
Nov 12
Full
Nov 19
Last Quarter
Nov 26
New

Hourly Weather History & Observations

Time (EDT) Temp. Windchill Dew Point Humidity Pressure Visibility Wind Dir Wind Speed Gust Speed Precip Events Conditions
12:56 AM 48.0 °F - 46.0 °F 93% 30.09 in 10.0 mi WSW 5.8 mph - N/A   Overcast
1:10 AM 48.2 °F - 46.4 °F 93% 30.06 in 10.0 mi South 3.5 mph - N/A   Overcast
1:43 AM 46.4 °F 44.3 °F 44.6 °F 93% 30.06 in 2.0 mi South 4.6 mph - N/A   Mostly Cloudy
1:46 AM 46.4 °F 44.3 °F 44.6 °F 93% 30.06 in 1.0 mi South 4.6 mph - N/A   Mostly Cloudy
1:52 AM 46.4 °F 44.3 °F 44.6 °F 93% 30.07 in 0.8 mi South 4.6 mph - N/A   Mostly Cloudy
1:56 AM 46.0 °F 44.8 °F 45.0 °F 96% 30.10 in 1.5 mi South 3.5 mph - N/A   Mostly Cloudy
2:01 AM 46.4 °F 44.3 °F 46.4 °F 100% 30.07 in 3.0 mi SSW 4.6 mph - N/A   Mostly Cloudy
2:09 AM 46.4 °F 45.2 °F 44.6 °F 93% 30.07 in 10.0 mi South 3.5 mph - N/A   Scattered Clouds
2:56 AM 46.0 °F 43.9 °F 45.0 °F 96% 30.11 in 10.0 mi SSW 4.6 mph - N/A   Partly Cloudy
3:56 AM 46.0 °F 43.1 °F 44.1 °F 93% 30.12 in 10.0 mi SW 5.8 mph - N/A   Clear
4:56 AM 44.1 °F 40.1 °F 44.1 °F 100% 30.13 in 10.0 mi WSW 6.9 mph - N/A   Clear
5:40 AM 42.8 °F 41.1 °F 42.8 °F 100% 30.10 in 1.5 mi SSW 3.5 mph - N/A   Clear
5:42 AM 42.8 °F 41.1 °F 42.8 °F 100% 30.10 in 0.8 mi South 3.5 mph - N/A   Mist
5:47 AM 42.8 °F 41.1 °F 42.8 °F 100% 30.10 in 0.2 mi South 3.5 mph - N/A Fog Fog
5:54 AM 42.8 °F 41.1 °F 42.8 °F 100% 30.10 in 0.8 mi South 3.5 mph - N/A   Mist
5:56 AM 43.0 °F 41.3 °F 43.0 °F 100% 30.14 in 0.8 mi SSW 3.5 mph - N/A   Mist
6:00 AM 42.8 °F 41.1 °F 42.8 °F 100% 30.10 in 1.2 mi SW 3.5 mph - N/A   Partly Cloudy
6:07 AM 44.6 °F 42.2 °F 44.6 °F 100% 30.11 in 3.0 mi SW 4.6 mph - N/A   Partly Cloudy
6:47 AM 42.8 °F 40.1 °F 42.8 °F 100% 30.12 in 1.8 mi SSW 4.6 mph - N/A   Clear
6:52 AM 42.8 °F 40.1 °F 42.8 °F 100% 30.12 in 0.8 mi South 4.6 mph - N/A   Clear
6:54 AM 42.8 °F 40.1 °F 42.8 °F 100% 30.12 in 0.5 mi South 4.6 mph - N/A Fog Fog
6:56 AM 43.0 °F 40.3 °F 42.1 °F 97% 30.16 in 0.5 mi South 4.6 mph - N/A Fog Fog
7:06 AM 42.8 °F 41.1 °F 42.8 °F 100% 30.12 in 0.2 mi South 3.5 mph - N/A Fog Fog
7:56 AM 41.0 °F 38.0 °F 41.0 °F 100% 30.17 in 0.2 mi South 4.6 mph - N/A Fog Fog
8:56 AM 43.0 °F 40.3 °F 42.1 °F 97% 30.18 in 0.2 mi South 4.6 mph - N/A Fog Fog
9:56 AM 43.0 °F 39.5 °F 43.0 °F 100% 30.19 in 0.2 mi SSE 5.8 mph - N/A Fog Fog
10:53 AM 44.6 °F 41.4 °F 44.6 °F 100% 30.16 in 0.8 mi Variable 5.8 mph - N/A   Overcast
10:56 AM 44.1 °F 40.1 °F 44.1 °F 100% 30.19 in 2.5 mi South 6.9 mph - N/A   Overcast
11:05 AM 44.6 °F 40.7 °F 44.6 °F 100% 30.16 in 5.0 mi South 6.9 mph - N/A   Overcast
11:56 AM 50.0 °F - 46.0 °F 86% 30.19 in 10.0 mi South 8.1 mph - N/A   Clear
12:56 PM 55.9 °F - 44.1 °F 64% 30.17 in 10.0 mi South 11.5 mph - N/A   Clear
1:56 PM 59.0 °F - 41.0 °F 51% 30.15 in 10.0 mi SSW 9.2 mph - N/A   Clear
2:56 PM 61.0 °F - 41.0 °F 48% 30.12 in 10.0 mi South 9.2 mph - N/A   Clear
3:56 PM 62.1 °F - 39.0 °F 43% 30.12 in 10.0 mi South 6.9 mph - N/A   Clear
4:56 PM 62.1 °F - 37.9 °F 41% 30.12 in 10.0 mi South 6.9 mph - N/A   Clear
5:56 PM 59.0 °F - 39.9 °F 49% 30.14 in 10.0 mi South 4.6 mph - N/A   Clear
6:56 PM 57.0 °F - 39.9 °F 53% 30.14 in 10.0 mi South 5.8 mph - N/A   Clear
7:56 PM 55.9 °F - 39.9 °F 55% 30.14 in 10.0 mi South 3.5 mph - N/A   Clear
8:56 PM 54.0 °F - 39.0 °F 57% 30.15 in 10.0 mi Calm Calm - N/A   Clear
9:56 PM 51.1 °F - 39.9 °F 66% 30.14 in 10.0 mi Calm Calm - N/A   Clear
10:56 PM 50.0 °F - 39.0 °F 66% 30.14 in 10.0 mi Calm Calm - N/A   Clear
11:56 PM 48.9 °F - 39.9 °F 71% 30.13 in 10.0 mi South 5.8 mph - N/A   Clear